{"data":{"norad_id":59222,"intl_designator":"2024-046X","name":"STARLINK-31490","alt_names":[],"object_type":"PAYLOAD","status":"ACTIVE","operator":null,"country":"US","launch_date":"2024-03-11","launch_site_code":"AFWTR","launch_vehicle":null,"mission":null,"orbit_class":"UNKNOWN","rcs_meters":null,"size_class":null,"mass_kg":null,"dimensions":null,"purposes":["comms"],"wikipedia_slug":null,"has_3d_model":false,"image_url":null,"decayed_at":null,"tle_current":{"epoch":"2026-05-25T00:41:24.160704Z","epoch_age_seconds":69402,"freshness":"FRESH","line1":"1 59222U 24046X   26145.02875186 -.00000083  00000+0  93338-5 0  9993","line2":"2 59222  53.1598 161.0106 0001035  84.5008 275.6111 15.30188778124729","mean_motion":15.30188778,"eccentricity":0.0001035,"inclination_deg":53.1598,"raan_deg":161.0106,"arg_perigee_deg":84.5008,"mean_anomaly_deg":275.6111,"bstar":9.3338e-6,"rev_number":12472,"period_min":94.106035850173,"perigee_km":474.53925108615,"apogee_km":475.95790190049,"semimajor_km":6853.3855764933,"source":"CELESTRAK","updated_at":"2026-05-25T13:38:18.868661Z"}}}